Total_Precipitation_Accumulation
0.11 0.28 0.69 1.15 1.69 1.95 1.50 0.80 0.62 0.47 0.46 0.56 0.54 0.46 0.52 0.71 1.05 1.89 1.90 1.89 1.57 1.42 1.52 1.90 2.29 2.03 1.75 1.65 1.71 1.75 1.59 1.55 1.56 1.61 1.59 1.73 1.73 1.58 1.60 1.77 1.95 2.22 2.52 2.31 2.07 1.92 1.76 1.61 1.41
0.23 0.44 0.89 1.38 1.95 2.10 1.39 0.71 0.53 0.42 0.49 0.55 0.46 0.41 0.52 0.59 0.68 1.11 1.59 1.71 1.30 1.10 1.19 1.37 1.71 1.68 1.55 1.46 1.48 1.42 1.42 1.42 1.49 1.60 1.54 1.58 1.58 1.52 1.57 1.78 1.94 2.13 2.08 1.80 1.78 1.71 1.54 1.33 1.19
0.41 0.65 1.01 1.40 1.47 1.42 0.84 0.45 0.40 0.38 0.51 0.54 0.47 0.45 0.59 0.82 0.94 1.21 1.31 1.25 1.05 0.96 1.06 1.25 1.41 1.37 1.37 1.36 1.31 1.26 1.28 1.35 1.45 1.47 1.48 1.54 1.49 1.50 1.61 1.76 1.91 1.89 1.71 1.61 1.64 1.52 1.40 1.13 0.99
0.56 0.78 0.99 1.09 0.97 0.77 0.50 0.37 0.35 0.38 0.51 0.47 0.45 0.66 0.91 1.09 0.97 1.03 1.02 0.96 0.84 0.86 0.98 1.16 1.20 1.06 1.09 1.13 1.11 1.13 1.18 1.35 1.41 1.34 1.44 1.53 1.58 1.56 1.62 1.69 1.74 1.66 1.50 1.47 1.38 1.27 1.20 1.02 0.95
0.61 0.86 1.06 0.92 0.70 0.51 0.40 0.35 0.35 0.36 0.38 0.47 0.58 0.96 1.29 1.31 0.92 0.95 0.97 0.80 0.65 0.77 0.92 1.00 1.05 0.94 0.92 1.00 0.99 1.06 1.20 1.40 1.44 1.37 1.39 1.45 1.53 1.56 1.53 1.49 1.49 1.51 1.39 1.28 1.21 1.18 1.08 1.03 1.03
0.68 0.77 0.78 0.65 0.49 0.36 0.39 0.37 0.34 0.34 0.41 0.51 0.65 0.82 1.40 1.37 1.04 1.14 1.03 0.88 0.74 0.78 0.91 1.03 1.07 0.97 0.92 0.97 0.99 1.06 1.30 1.53 1.49 1.37 1.36 1.35 1.35 1.36 1.33 1.33 1.38 1.43 1.30 1.17 1.12 1.09 1.03 0.96 0.97
0.48 0.56 0.52 0.40 0.34 0.31 0.31 0.29 0.30 0.33 0.49 0.61 0.70 0.97 1.56 1.65 1.25 1.14 1.15 1.10 0.92 0.97 1.16 1.16 1.04 1.04 1.14 1.23 1.29 1.36 1.58 1.64 1.52 1.48 1.40 1.34 1.27 1.25 1.29 1.26 1.29 1.29 1.20 1.15 1.04 1.02 0.95 0.87 0.90
0.32 0.30 0.27 0.21 0.20 0.26 0.23 0.22 0.27 0.34 0.51 0.66 0.81 1.13 1.71 1.67 1.30 1.20 1.24 1.39 1.23 1.17 1.15 1.14 1.03 1.03 1.08 1.33 1.69 1.73 1.72 1.71 1.64 1.55 1.47 1.36 1.24 1.25 1.28 1.18 1.33 1.32 1.31 1.26 1.21 1.20 1.00 0.97 1.04
0.19 0.24 0.19 0.15 0.13 0.17 0.18 0.19 0.25 0.37 0.52 0.64 0.91 1.14 1.28 1.20 1.28 1.28 1.45 1.74 1.76 1.51 1.38 1.24 1.00 1.07 1.27 1.55 1.70 1.76 1.79 1.89 1.96 1.84 1.71 1.68 1.73 1.69 1.79 1.55 1.79 1.71 1.69 1.62 1.61 1.54 1.42 1.36 1.22
0.15 0.18 0.15 0.11 0.10 0.12 0.12 0.16 0.28 0.53 0.72 1.01 1.28 1.27 1.07 1.05 1.30 1.45 1.65 2.03 2.11 1.97 1.78 1.55 1.31 1.33 1.54 1.57 1.55 1.66 1.72 1.88 1.99 2.07 1.98 2.27 2.54 2.42 1.90 2.09 2.39 2.42 2.34 2.22 2.25 2.33 2.09 1.77 1.49
0.10 0.10 0.09 0.10 0.09 0.09 0.09 0.16 0.23 0.41 0.91 1.45 1.70 1.63 1.43 1.24 1.45 1.79 2.14 2.46 2.27 2.04 1.98 1.92 1.75 1.72 1.62 1.64 1.62 1.81 1.98 2.33 2.22 2.11 2.13 2.58 2.48 2.20 1.99 2.23 2.60 2.87 2.71 2.56 2.67 2.75 2.30 2.35 2.55
0.06 0.07 0.06 0.06 0.06 0.06 0.09 0.15 0.27 0.42 0.90 1.18 1.38 1.47 1.48 1.46 1.53 1.76 2.09 2.40 2.61 2.57 2.46 2.35 2.23 2.12 2.12 2.03 1.90 1.85 1.96 2.19 2.28 2.42 2.19 2.56 2.79 2.65 2.59 2.84 2.82 3.03 3.17 3.55 3.34 3.39 3.16 3.10 2.93
0.07 0.06 0.05 0.04 0.04 0.06 0.09 0.17 0.31 0.46 0.73 0.78 0.87 1.01 1.28 1.51 1.87 2.19 2.34 2.68 2.82 2.99 2.88 2.85 2.77 2.70 2.71 2.63 2.47 2.02 2.18 2.27 2.39 2.63 2.61 2.74 3.06 3.15 3.18 3.16 3.06 2.81 3.15 3.59 3.84 3.45 3.71 3.74 3.34
0.07 0.07 0.05 0.05 0.06 0.08 0.11 0.19 0.33 0.54 0.66 0.69 0.78 0.96 1.22 1.55 1.86 2.30 2.59 3.00 3.04 3.13 3.33 3.52 3.44 3.30 3.34 3.22 3.09 2.87 2.67 2.85 2.82 2.92 3.12 3.28 3.55 3.72 3.67 3.49 3.38 2.99 2.96 3.29 3.52 3.50 3.90 3.75 3.55
0.07 0.08 0.11 0.10 0.09 0.12 0.23 0.39 0.55 0.70 0.71 0.87 0.95 1.19 1.36 1.66 2.04 2.14 2.32 2.62 2.98 3.28 3.82 4.20 4.25 4.12 4.13 4.03 3.74 3.47 3.37 3.39 3.66 3.84 3.82 3.76 3.89 4.17 3.99 3.75 3.35 3.10 3.10 3.33 3.29 3.31 3.44 3.31 3.19
0.09 0.15 0.27 0.23 0.16 0.16 0.29 0.70 0.78 0.79 0.86 1.04 1.07 1.30 1.62 1.71 2.05 2.19 2.24 2.48 3.10 3.56 4.20 4.64 4.84 5.00 4.89 4.85 4.57 4.14 3.98 3.97 4.05 4.15 4.19 4.00 4.03 3.93 3.93 3.61 3.16 3.16 3.15 3.22 3.35 3.21 3.31 3.27 3.27
0.16 0.24 0.35 0.37 0.22 0.22 0.32 0.71 0.84 0.82 0.98 1.12 1.26 1.32 1.47 1.70 2.13 2.43 2.59 2.75 3.29 3.88 4.61 5.18 5.76 5.97 5.81 5.51 5.11 4.73 4.66 4.54 4.39 4.40 4.36 4.15 3.88 3.70 3.88 3.56 3.34 3.23 3.20 3.07 2.84 3.29 3.47 3.46 3.43
0.24 0.25 0.34 0.42 0.26 0.24 0.41 0.64 0.87 0.95 1.08 1.23 1.27 1.26 1.41 1.72 1.95 2.32 2.68 3.07 3.52 3.94 4.74 5.51 6.25 6.43 6.14 5.58 5.24 5.14 4.97 4.68 4.44 4.21 4.04 3.78 3.61 3.32 3.55 3.25 3.16 3.24 3.38 3.21 3.20 3.53 3.58 3.28 3.33
0.17 0.21 0.32 0.37 0.25 0.29 0.45 0.65 0.87 1.03 1.17 1.23 1.37 1.36 1.56 1.82 1.98 2.37 2.74 3.21 3.67 4.17 4.92 5.60 6.17 6.25 6.09 5.72 5.34 5.10 4.64 4.32 4.05 3.79 3.59 3.33 3.04 2.94 3.30 3.06 3.41 3.21 3.16 3.00 2.94 3.05 3.13 2.84 3.04
0.14 0.22 0.35 0.36 0.25 0.30 0.49 0.73 1.00 1.08 1.05 1.06 1.27 1.35 1.42 1.62 1.92 2.29 2.82 3.13 3.51 4.03 4.58 5.00 5.06 4.83 4.75 4.80 4.69 4.44 4.45 4.28 4.18 3.99 3.81 3.32 3.11 3.01 2.84 3.04 2.86 2.83 2.95 2.75 2.66 2.86 2.88 2.59 2.87
0.12 0.20 0.27 0.30 0.31 0.39 0.56 0.94 1.22 1.23 1.03 0.95 0.99 1.09 1.20 1.33 1.54 1.89 2.47 2.80 3.01 3.51 3.83 3.86 3.79 3.69 3.82 3.93 3.88 3.93 4.18 4.22 4.24 4.13 3.86 3.49 3.28 3.14 2.99 2.88 2.71 2.67 2.51 2.64 2.67 2.73 2.82 2.80 2.70
0.13 0.13 0.16 0.19 0.30 0.59 0.67 1.15 1.49 1.59 1.40 1.11 0.98 1.09 1.16 1.24 1.29 1.60 1.94 2.19 2.48 2.76 2.88 2.85 2.93 3.02 3.15 3.27 3.29 3.16 3.20 3.46 3.71 3.89 3.94 3.83 3.54 3.28 2.99 2.81 2.61 2.46 2.33 2.61 2.31 2.42 2.73 2.93 2.62
0.10 0.09 0.12 0.18 0.29 0.48 0.61 0.91 1.41 1.76 1.77 1.36 1.09 1.00 0.96 1.08 1.32 1.53 1.66 1.83 1.95 2.02 2.13 2.16 2.45 2.84 3.04 3.18 3.30 3.18 2.86 2.89 2.97 3.10 3.26 3.24 3.23 3.04 2.71 2.61 2.55 2.38 2.25 2.29 2.29 2.57 2.59 2.61 2.54
0.10 0.16 0.25 0.37 0.53 0.82 0.74 0.83 1.29 1.55 1.65 1.30 1.07 0.97 0.86 0.86 1.03 1.26 1.55 1.65 1.64 1.61 1.75 1.95 2.26 2.74 3.03 3.13 3.09 3.04 2.95 2.96 2.90 2.87 2.93 2.80 2.77 2.66 2.42 2.32 2.43 2.30 2.21 2.24 2.24 2.37 2.44 2.60 2.67
0.11 0.21 0.60 1.03 1.36 1.41 0.86 0.83 1.07 1.10 1.04 1.04 0.90 0.84 0.89 0.82 0.81 0.81 1.01 1.28 1.26 1.23 1.41 1.67 1.86 2.26 2.55 2.69 2.67 2.60 2.72 2.83 2.70 2.54 2.48 2.40 2.26 2.15 2.10 2.20 2.34 2.19 2.16 2.25 2.39 2.42 2.41 2.55 2.62
0.11 0.16 0.43 0.76 0.96 1.09 0.94 1.27 1.36 1.02 0.85 0.76 0.64 0.63 0.72 0.67 0.61 0.59 0.66 0.84 1.06 1.07 1.15 1.28 1.52 1.80 2.06 2.16 2.29 2.42 2.58 2.68 2.60 2.74 2.50 2.34 2.04 1.87 1.93 2.16 2.24 2.17 2.09 2.09 2.49 2.48 2.50 2.61 2.59
0.13 0.13 0.19 0.31 0.46 0.77 1.08 1.29 1.25 1.04 0.97 0.78 0.60 0.54 0.54 0.53 0.52 0.52 0.59 0.79 0.85 0.87 0.93 1.05 1.27 1.47 1.67 1.85 2.06 2.16 2.15 2.15 2.32 2.47 2.43 2.25 2.17 1.93 1.99 2.07 2.27 2.36 2.43 2.49 2.63 2.57 2.58 2.78 2.75
0.13 0.13 0.16 0.24 0.41 0.63 0.96 1.35 1.44 1.33 1.14 0.96 0.84 0.64 0.53 0.56 0.58 0.54 0.55 0.64 0.69 0.73 0.84 1.05 1.23 1.26 1.49 1.84 2.07 2.01 2.04 1.99 2.15 2.16 2.14 2.15 2.08 2.03 2.06 2.08 2.17 2.32 2.43 2.49 2.65 2.66 2.71 2.89 2.91
0.17 0.15 0.14 0.19 0.24 0.40 0.82 1.12 1.06 1.10 1.03 0.96 0.83 0.71 0.67 0.65 0.63 0.60 0.59 0.59 0.70 0.63 0.71 0.88 1.01 1.17 1.48 1.81 2.08 2.13 2.04 2.05 2.10 1.96 1.93 2.03 2.04 2.01 2.07 2.08 2.07 2.08 2.23 2.43 2.64 2.60 2.76 2.88 2.93
0.18 0.17 0.18 0.24 0.24 0.27 0.45 0.76 0.64 0.73 0.85 0.87 0.70 0.62 0.61 0.53 0.51 0.48 0.47 0.53 0.51 0.50 0.60 0.91 1.23 1.58 1.77 2.06 2.40 2.48 2.24 2.04 1.90 1.75 1.74 1.88 2.04 2.09 2.08 2.07 2.07 2.01 2.12 2.36 2.52 2.63 2.87 3.00 2.90